TUI5PW EDDL-HEGN

Flight info

Callsign TUI5PW
Flight time N/A
Altitude 37000
Route DODEN1T DODEN Y853 BOMBI DCT DETEV DCT DINKU/N0449F330 M867 XERUM DCT BAVAX DCT RADIZ/N0455F370 DCT MODRO DCT DARZA DCT PINDO UL607 ATV DCT GENDO UL607 PAXIS Y707 OBRAN L321 REXUM M872 HGD
Aircraft B38M/M-SDE1FGHILORVWXY/HB1

Departure

Time 2026-02-17 13:27
Airport Düsseldorf Airport (EDDL)

Arrival

Time N/A
Airport Hurghada International Airport (HEGN)
Time Latitude Longitude Altitude Speed Heading
2026-02-17 13:12 51.27539 6.76266 132 ft 2 kts 33°
2026-02-17 13:16 51.27542 6.76265 132 ft 1 kts 360°
2026-02-17 13:16 51.27546 6.76254 133 ft 2 kts 294°
2026-02-17 13:16 51.27551 6.76187 133 ft 10 kts 276°
2026-02-17 13:16 51.27595 6.76065 133 ft 16 kts 338°
2026-02-17 13:17 51.27717 6.76042 132 ft 19 kts
2026-02-17 13:17 51.27858 6.76047 127 ft 22 kts
2026-02-17 13:17 51.28040 6.76048 128 ft 29 kts
2026-02-17 13:17 51.28169 6.76083 130 ft 16 kts 63°
2026-02-17 13:18 51.28234 6.76241 127 ft 19 kts 52°
2026-02-17 13:18 51.28323 6.76426 127 ft 24 kts 54°
2026-02-17 13:18 51.28433 6.76658 125 ft 29 kts 52°
2026-02-17 13:19 51.28707 6.77232 132 ft 37 kts 52°
2026-02-17 13:19 51.28855 6.77544 132 ft 33 kts 53°
2026-02-17 13:19 51.28997 6.77842 132 ft 33 kts 52°
2026-02-17 13:19 51.29140 6.78141 136 ft 34 kts 52°
2026-02-17 13:20 51.29280 6.78437 148 ft 32 kts 52°
2026-02-17 13:20 51.29451 6.78569 155 ft 27 kts 352°
2026-02-17 13:20 51.29509 6.78436 152 ft 15 kts 226°
2026-02-17 13:20 51.29472 6.78367 150 ft 0 kts 232°
2026-02-17 13:27 51.29392 6.78203 146 ft 49 kts 233°
2026-02-17 13:27 51.29015 6.77410 131 ft 126 kts 233°
2026-02-17 13:27 51.28363 6.76063 308 ft 171 kts 234°
2026-02-17 13:27 51.27600 6.74504 1140 ft 179 kts 237°
2026-02-17 13:28 51.26815 6.72866 2056 ft 190 kts 239°
2026-02-17 13:28 51.25987 6.71097 2749 ft 208 kts 240°
2026-02-17 13:28 51.25100 6.69120 3412 ft 228 kts 239°
2026-02-17 13:28 51.24133 6.66996 4155 ft 244 kts 240°
2026-02-17 13:29 51.23000 6.64924 5105 ft 257 kts 224°
2026-02-17 13:29 51.21366 6.63606 6053 ft 276 kts 200°
2026-02-17 13:29 51.19407 6.63473 6992 ft 292 kts 174°
2026-02-17 13:29 51.17464 6.64638 7899 ft 303 kts 149°
2026-02-17 13:30 51.15889 6.66913 8858 ft 309 kts 131°
2026-02-17 13:30 51.14483 6.69511 9760 ft 313 kts 126°
2026-02-17 13:30 51.13532 6.72567 10382 ft 323 kts 103°
2026-02-17 13:31 51.13467 6.79980 11243 ft 352 kts 83°
2026-02-17 13:31 51.13569 6.83950 11805 ft 365 kts 90°
2026-02-17 13:31 51.13011 6.87873 12647 ft 369 kts 114°
2026-02-17 13:31 51.11774 6.90872 13280 ft 374 kts 130°
2026-02-17 13:32 51.10203 6.94208 13984 ft 378 kts 126°
2026-02-17 13:32 51.08683 6.97659 14609 ft 384 kts 124°
2026-02-17 13:32 51.07154 7.01187 15224 ft 390 kts 124°
2026-02-17 13:32 51.05608 7.04788 15820 ft 396 kts 123°
2026-02-17 13:33 51.04070 7.08391 16396 ft 402 kts 123°
2026-02-17 13:33 51.02486 7.12104 17040 ft 405 kts 124°
2026-02-17 13:33 51.00896 7.15825 17748 ft 408 kts 124°
2026-02-17 13:33 50.99286 7.19593 18252 ft 414 kts 123°
2026-02-17 13:34 50.97680 7.23343 18733 ft 419 kts 123°
2026-02-17 13:34 50.96018 7.27219 19219 ft 423 kts 123°
2026-02-17 13:34 50.94366 7.31067 19686 ft 428 kts 123°
2026-02-17 13:35 50.90975 7.38947 20625 ft 437 kts 123°
2026-02-17 13:35 50.89246 7.42954 21077 ft 442 kts 123°
2026-02-17 13:35 50.87499 7.46998 21529 ft 446 kts 123°
2026-02-17 13:35 50.85740 7.51065 21943 ft 450 kts 123°
2026-02-17 13:36 50.84589 7.53721 22270 ft 453 kts 124°
2026-02-17 13:36 50.82804 7.57836 22912 ft 452 kts 124°
2026-02-17 13:36 50.81014 7.61954 23311 ft 457 kts 124°
2026-02-17 13:36 50.79203 7.66117 23669 ft 461 kts 124°
2026-02-17 13:37 50.77373 7.70316 23974 ft 465 kts 124°
2026-02-17 13:37 50.75548 7.74497 24300 ft 470 kts 123°
2026-02-17 13:37 50.73733 7.78647 24602 ft 474 kts 123°
2026-02-17 13:37 50.71843 7.82960 24915 ft 478 kts 123°
2026-02-17 13:38 50.69939 7.87301 25231 ft 482 kts 123°
2026-02-17 13:38 50.68017 7.91674 25519 ft 487 kts 123°
2026-02-17 13:38 50.66066 7.96105 25867 ft 491 kts 123°
2026-02-17 13:39 50.62210 8.04842 26761 ft 493 kts 123°
2026-02-17 13:39 50.60068 8.09215 27030 ft 497 kts 135°
2026-02-17 13:39 50.57474 8.12821 27273 ft 501 kts 140°
2026-02-17 13:39 50.54809 8.16398 27408 ft 508 kts 141°
2026-02-17 13:40 50.52091 8.19997 27662 ft 512 kts 141°
2026-02-17 13:40 50.49489 8.23410 27917 ft 516 kts 141°
2026-02-17 13:40 50.46726 8.27024 28195 ft 519 kts 141°
2026-02-17 13:40 50.44412 8.30043 28430 ft 522 kts 141°
2026-02-17 13:41 50.41601 8.33707 28689 ft 526 kts 141°
2026-02-17 13:41 50.38782 8.37373 29128 ft 525 kts 141°
2026-02-17 13:42 50.30461 8.48168 29759 ft 537 kts 141°
2026-02-17 13:42 50.27599 8.51868 29939 ft 542 kts 141°
2026-02-17 13:42 50.24692 8.55619 30152 ft 544 kts 141°
2026-02-17 13:43 50.18838 8.63157 30637 ft 548 kts 141°
2026-02-17 13:43 50.15878 8.66960 30852 ft 551 kts 141°
2026-02-17 13:43 50.12902 8.70776 31081 ft 552 kts 141°
2026-02-17 13:43 50.09944 8.74566 31300 ft 555 kts 141°
2026-02-17 13:44 50.07011 8.78533 31418 ft 558 kts 133°
2026-02-17 13:44 50.05934 8.80411 31448 ft 557 kts 124°
2026-02-17 13:44 50.03937 8.85541 31614 ft 550 kts 109°
2026-02-17 13:45 50.02301 8.90952 31726 ft 555 kts 110°
2026-02-17 13:45 50.00630 8.96266 31946 ft 556 kts 110°
2026-02-17 13:45 49.98930 9.01699 32224 ft 556 kts 110°
2026-02-17 13:45 49.97249 9.07075 32733 ft 551 kts 110°
2026-02-17 13:46 49.95581 9.12400 33317 ft 544 kts 110°
2026-02-17 13:46 49.93923 9.17680 33805 ft 540 kts 111°
2026-02-17 13:46 49.92267 9.22939 34106 ft 538 kts 111°
2026-02-17 13:47 49.88980 9.33355 34455 ft 541 kts 111°
2026-02-17 13:47 49.87327 9.38577 34351 ft 549 kts 111°
2026-02-17 13:47 49.85637 9.43902 34591 ft 548 kts 111°
2026-02-17 13:47 49.83956 9.49187 34850 ft 547 kts 112°
2026-02-17 13:48 49.81922 9.54211 35084 ft 551 kts 128°
2026-02-17 13:48 49.79280 9.58456 35461 ft 547 kts 135°
2026-02-17 13:48 49.76560 9.62531 35679 ft 547 kts 136°
2026-02-17 13:48 49.73800 9.66606 35868 ft 548 kts 136°
2026-02-17 13:49 49.70969 9.70729 36099 ft 547 kts 137°
2026-02-17 13:49 49.68201 9.74733 36338 ft 546 kts 137°
2026-02-17 13:49 49.65463 9.78685 36583 ft 544 kts 137°
2026-02-17 13:49 49.62659 9.82725 36805 ft 543 kts 137°
2026-02-17 13:50 49.57160 9.90630 36793 ft 542 kts 137°
2026-02-17 13:51 49.48908 10.02443 36814 ft 541 kts 137°
2026-02-17 13:51 49.43379 10.10326 36800 ft 542 kts 137°
2026-02-17 13:52 49.37849 10.18185 36808 ft 542 kts 137°
2026-02-17 13:52 49.32310 10.26033 36824 ft 542 kts 137°
2026-02-17 13:53 49.26767 10.33863 36783 ft 538 kts 137°
2026-02-17 13:53 49.21673 10.40085 36832 ft 536 kts 153°
2026-02-17 13:54 49.15333 10.45844 36809 ft 539 kts 151°
2026-02-17 13:54 49.09893 10.50808 36871 ft 540 kts 151°
2026-02-17 13:55 49.00194 10.59599 36835 ft 541 kts 151°
2026-02-17 13:55 48.93759 10.65409 36861 ft 539 kts 151°
2026-02-17 13:56 48.87308 10.71216 36863 ft 537 kts 151°
2026-02-17 13:56 48.81022 10.77359 36804 ft 538 kts 137°
2026-02-17 13:57 48.75903 10.85615 36828 ft 539 kts 131°
2026-02-17 13:57 48.70835 10.94036 36883 ft 543 kts 131°
2026-02-17 13:58 48.65771 11.02493 36824 ft 539 kts 131°
2026-02-17 13:59 48.58215 11.15067 36829 ft 539 kts 131°
2026-02-17 13:59 48.53149 11.23463 36823 ft 539 kts 131°
2026-02-17 14:00 48.48107 11.31794 36876 ft 542 kts 131°
2026-02-17 14:00 48.43032 11.40151 36823 ft 538 kts 131°
2026-02-17 14:01 48.37969 11.48462 36841 ft 539 kts 131°
2026-02-17 14:01 48.32892 11.56771 36829 ft 538 kts 131°
2026-02-17 14:02 48.27818 11.65052 36866 ft 539 kts 131°
2026-02-17 14:02 48.22451 11.72815 36877 ft 533 kts 137°
2026-02-17 14:03 48.14199 11.84167 36849 ft 534 kts 137°
2026-02-17 14:03 48.08725 11.91658 36849 ft 534 kts 137°
2026-02-17 14:04 48.03316 11.99039 36891 ft 534 kts 137°
2026-02-17 14:04 47.99144 12.04718 36833 ft 530 kts 137°
2026-02-17 14:05 47.94762 12.10666 36861 ft 532 kts 137°
2026-02-17 14:05 47.89315 12.18041 36854 ft 531 kts 137°
2026-02-17 14:06 47.83835 12.25440 36862 ft 531 kts 137°
2026-02-17 14:07 47.76488 12.35324 36836 ft 532 kts 137°
2026-02-17 14:07 47.70981 12.42707 36860 ft 533 kts 137°
2026-02-17 14:08 47.65466 12.50081 36858 ft 533 kts 137°
2026-02-17 14:08 47.59786 12.57166 36865 ft 533 kts 141°
2026-02-17 14:09 47.54025 12.64111 36885 ft 532 kts 140°
2026-02-17 14:09 47.48382 12.70929 36869 ft 527 kts 140°
2026-02-17 14:10 47.42670 12.77811 36852 ft 528 kts 140°
2026-02-17 14:10 47.36971 12.84658 36871 ft 528 kts 140°
2026-02-17 14:11 47.28405 12.94912 36880 ft 528 kts 140°
2026-02-17 14:11 47.22739 13.01671 36859 ft 520 kts 140°
2026-02-17 14:12 47.17112 13.08365 36833 ft 521 kts 140°
2026-02-17 14:12 47.11468 13.15060 36864 ft 521 kts 140°
2026-02-17 14:13 47.05822 13.21737 36827 ft 520 kts 141°
2026-02-17 14:13 47.00190 13.28380 36823 ft 517 kts 141°
2026-02-17 14:14 46.94595 13.34962 36825 ft 515 kts 140°
2026-02-17 14:15 46.86237 13.44759 36792 ft 515 kts 141°
2026-02-17 14:15 46.80598 13.51345 36811 ft 516 kts 141°
2026-02-17 14:16 46.74999 13.57867 36771 ft 520 kts 141°
2026-02-17 14:16 46.69307 13.64480 36764 ft 526 kts 141°
2026-02-17 14:17 46.63566 13.71132 36763 ft 526 kts 142°
2026-02-17 14:17 46.57874 13.77708 36747 ft 526 kts 142°
2026-02-17 14:18 46.52130 13.84325 36772 ft 526 kts 142°
2026-02-17 14:18 46.46414 13.90893 36737 ft 521 kts 142°
2026-02-17 14:19 46.37846 14.00702 36744 ft 523 kts 142°
2026-02-17 14:19 46.32127 14.07227 36746 ft 523 kts 142°
2026-02-17 14:20 46.26428 14.13713 36749 ft 524 kts 142°
2026-02-17 14:20 46.20730 14.20179 36747 ft 518 kts 142°
2026-02-17 14:21 46.15054 14.26607 36739 ft 518 kts 142°
2026-02-17 14:21 46.09414 14.32978 36755 ft 519 kts 142°
2026-02-17 14:22 46.00903 14.42678 36780 ft 521 kts 141°
2026-02-17 14:23 45.92433 14.52338 36751 ft 517 kts 141°
2026-02-17 14:23 45.86785 14.58759 36741 ft 517 kts 142°
2026-02-17 14:24 45.81144 14.65154 36753 ft 517 kts 142°
2026-02-17 14:24 45.75494 14.71542 36771 ft 516 kts 142°
2026-02-17 14:25 45.69899 14.77851 36752 ft 514 kts 142°
2026-02-17 14:25 45.64272 14.84180 36745 ft 515 kts 142°
2026-02-17 14:26 45.58632 14.90508 36727 ft 515 kts 142°
2026-02-17 14:27 45.50152 15.00010 36759 ft 516 kts 140°
2026-02-17 14:27 45.44868 15.06885 36782 ft 515 kts 137°
2026-02-17 14:28 45.39623 15.13832 36760 ft 514 kts 137°
2026-02-17 14:28 45.34372 15.20779 36733 ft 515 kts 137°
2026-02-17 14:29 45.29109 15.27721 36766 ft 517 kts 137°
2026-02-17 14:29 45.23829 15.34668 36759 ft 517 kts 137°
2026-02-17 14:30 45.18546 15.41600 36763 ft 517 kts 137°
2026-02-17 14:31 45.07965 15.55429 36759 ft 516 kts 137°
2026-02-17 14:31 45.02695 15.62290 36759 ft 515 kts 137°
2026-02-17 14:32 44.97415 15.69147 36756 ft 515 kts 137°
2026-02-17 14:32 44.92137 15.75982 36765 ft 515 kts 137°
2026-02-17 14:33 44.86851 15.82810 36770 ft 513 kts 137°
2026-02-17 14:33 44.78984 15.92938 36768 ft 512 kts 137°
2026-02-17 14:34 44.73721 15.99692 36774 ft 511 kts 137°
2026-02-17 14:35 44.65825 16.09793 36790 ft 510 kts 137°
2026-02-17 14:35 44.60583 16.16478 36736 ft 508 kts 137°
2026-02-17 14:36 44.55333 16.23155 36776 ft 511 kts 138°
2026-02-17 14:36 44.50075 16.29827 36762 ft 510 kts 138°
2026-02-17 14:37 44.44814 16.36484 36786 ft 509 kts 138°
2026-02-17 14:37 44.39560 16.43116 36771 ft 507 kts 138°
2026-02-17 14:38 44.34339 16.49690 36762 ft 509 kts 138°
2026-02-17 14:38 44.29067 16.56310 36777 ft 510 kts 138°
2026-02-17 14:39 44.26802 16.59151 36760 ft 509 kts 138°
2026-02-17 14:40 44.21542 16.65733 36761 ft 507 kts 138°
2026-02-17 14:41 44.13663 16.75561 36736 ft 506 kts 138°
2026-02-17 14:41 44.11923 16.77727 36739 ft 507 kts 138°
2026-02-17 14:42 44.10759 16.79175 36751 ft 508 kts 138°
2026-02-17 14:42 44.05493 16.85715 36763 ft 509 kts 139°
2026-02-17 14:43 43.97587 16.95503 36763 ft 505 kts 139°
2026-02-17 14:43 43.92334 17.01987 36744 ft 505 kts 139°
2026-02-17 14:44 43.87073 17.08464 36748 ft 508 kts 139°
2026-02-17 14:44 43.81782 17.14962 36758 ft 508 kts 139°
2026-02-17 14:45 43.76518 17.21411 36743 ft 504 kts 139°
2026-02-17 14:45 43.72146 17.26756 36730 ft 504 kts 139°
2026-02-17 14:46 43.70802 17.28397 36730 ft 504 kts 139°
2026-02-17 14:47 43.62911 17.38010 36707 ft 505 kts 139°
2026-02-17 14:47 43.57630 17.44422 36704 ft 504 kts 139°
2026-02-17 14:48 43.52381 17.50783 36699 ft 503 kts 139°
2026-02-17 14:48 43.47119 17.57143 36681 ft 503 kts 139°
2026-02-17 14:49 43.41844 17.63502 36676 ft 503 kts 139°
2026-02-17 14:49 43.36577 17.69838 36661 ft 503 kts 139°
2026-02-17 14:50 43.31308 17.76160 36671 ft 503 kts 140°
2026-02-17 14:50 43.26064 17.82438 36657 ft 499 kts 140°
2026-02-17 14:51 43.18198 17.91826 36639 ft 500 kts 140°
2026-02-17 14:51 43.12949 17.98073 36650 ft 501 kts 140°
2026-02-17 14:52 43.07682 18.04325 36624 ft 501 kts 140°
2026-02-17 14:52 43.02415 18.10563 36610 ft 501 kts 140°
2026-02-17 14:53 42.97140 18.16796 36596 ft 501 kts 140°
2026-02-17 14:53 42.91865 18.23015 36593 ft 502 kts 140°
2026-02-17 14:54 42.86607 18.29199 36572 ft 502 kts 140°
2026-02-17 14:55 42.78670 18.38506 36591 ft 502 kts 140°
2026-02-17 14:55 42.73368 18.44703 36586 ft 501 kts 140°
2026-02-17 14:56 42.68106 18.50842 36569 ft 498 kts 140°
2026-02-17 14:56 42.62831 18.56982 36572 ft 499 kts 140°
2026-02-17 14:57 42.57562 18.63099 36525 ft 499 kts 140°
2026-02-17 14:57 42.52281 18.69217 36536 ft 499 kts 140°
2026-02-17 14:58 42.46979 18.75344 36525 ft 499 kts 140°
2026-02-17 14:58 42.41689 18.81444 36532 ft 500 kts 141°
2026-02-17 14:59 42.33750 18.90574 36535 ft 503 kts 141°
2026-02-17 14:59 42.28405 18.96700 36530 ft 500 kts 141°
2026-02-17 15:00 42.23125 19.02739 36521 ft 499 kts 141°
2026-02-17 15:00 42.17818 19.08796 36526 ft 499 kts 141°
2026-02-17 15:01 42.12520 19.14827 36529 ft 496 kts 141°
2026-02-17 15:01 42.07255 19.20809 36502 ft 494 kts 141°
2026-02-17 15:02 42.01987 19.26780 36490 ft 495 kts 141°
2026-02-17 15:03 41.94080 19.35719 36485 ft 496 kts 141°
2026-02-17 15:03 41.88793 19.41678 36476 ft 496 kts 141°
2026-02-17 15:04 41.83499 19.47631 36489 ft 495 kts 141°
2026-02-17 15:04 41.78270 19.53500 36467 ft 493 kts 141°
2026-02-17 15:05 41.73011 19.59387 36471 ft 493 kts 141°
2026-02-17 15:05 41.67728 19.65290 36470 ft 494 kts 141°
2026-02-17 15:06 41.62445 19.71179 36457 ft 494 kts 141°
2026-02-17 15:06 41.57150 19.77069 36455 ft 494 kts 141°
2026-02-17 15:07 41.49268 19.85812 36440 ft 491 kts 142°
2026-02-17 15:07 41.44003 19.91636 36443 ft 492 kts 142°
2026-02-17 15:08 41.38724 19.97464 36442 ft 493 kts 142°
2026-02-17 15:08 41.33442 20.03281 36439 ft 492 kts 142°
2026-02-17 15:09 41.28166 20.09079 36439 ft 493 kts 142°
2026-02-17 15:09 41.22873 20.14883 36443 ft 492 kts 142°
2026-02-17 15:10 41.17601 20.20653 36424 ft 490 kts 142°
2026-02-17 15:11 41.09684 20.29293 36427 ft 491 kts 142°
2026-02-17 15:11 41.04410 20.35033 36422 ft 491 kts 142°
2026-02-17 15:12 40.99136 20.40761 36423 ft 490 kts 142°
2026-02-17 15:12 40.93886 20.46453 36422 ft 491 kts 142°
2026-02-17 15:13 40.88620 20.52151 36407 ft 487 kts 143°
2026-02-17 15:13 40.83378 20.57811 36405 ft 487 kts 143°
2026-02-17 15:14 40.78441 20.63130 36402 ft 487 kts 143°
2026-02-17 15:14 40.73193 20.68774 36404 ft 487 kts 143°
2026-02-17 15:15 40.65291 20.77250 36404 ft 489 kts 143°
2026-02-17 15:15 40.60008 20.82902 36420 ft 488 kts 143°
2026-02-17 15:16 40.54767 20.88498 36409 ft 484 kts 143°
2026-02-17 15:16 40.49534 20.94073 36394 ft 485 kts 143°
2026-02-17 15:17 40.44446 20.99903 36391 ft 486 kts 141°
2026-02-17 15:17 40.39350 21.05774 36400 ft 487 kts 141°
2026-02-17 15:18 40.34286 21.11591 36397 ft 487 kts 141°
2026-02-17 15:19 40.26647 21.20343 36394 ft 484 kts 141°
2026-02-17 15:19 40.21577 21.26138 36399 ft 484 kts 141°
2026-02-17 15:20 40.16500 21.31927 36383 ft 485 kts 141°
2026-02-17 15:20 40.11392 21.37740 36391 ft 486 kts 142°
2026-02-17 15:21 40.06301 21.43523 36398 ft 486 kts 142°
2026-02-17 15:21 40.01186 21.49320 36398 ft 486 kts 142°
2026-02-17 15:22 39.96081 21.55097 36393 ft 486 kts 142°
2026-02-17 15:22 39.90980 21.60864 36382 ft 486 kts 142°
2026-02-17 15:23 39.83293 21.69536 36397 ft 487 kts 142°
2026-02-17 15:23 39.78195 21.75272 36404 ft 487 kts 142°
2026-02-17 15:24 39.73071 21.81025 36394 ft 486 kts 142°
2026-02-17 15:24 39.67967 21.86745 36384 ft 483 kts 142°
2026-02-17 15:25 39.62868 21.92446 36392 ft 484 kts 142°
2026-02-17 15:25 39.57757 21.98150 36393 ft 485 kts 142°
2026-02-17 15:26 39.52643 22.03846 36393 ft 485 kts 142°
2026-02-17 15:27 39.44963 22.12378 36390 ft 485 kts 142°
2026-02-17 15:27 39.39852 22.18042 36394 ft 484 kts 143°
2026-02-17 15:28 39.34733 22.23703 36391 ft 484 kts 143°
2026-02-17 15:28 39.29606 22.29362 36393 ft 484 kts 143°
2026-02-17 15:29 39.25346 22.34055 36392 ft 484 kts 143°
2026-02-17 15:29 39.19377 22.40618 36396 ft 484 kts 143°
2026-02-17 15:30 39.14252 22.46242 36385 ft 484 kts 143°
2026-02-17 15:30 39.09957 22.50944 36371 ft 483 kts 143°
2026-02-17 15:31 39.02261 22.59354 36386 ft 484 kts 143°
2026-02-17 15:31 38.97133 22.64944 36389 ft 484 kts 143°
2026-02-17 15:32 38.91982 22.70546 36396 ft 484 kts 143°
2026-02-17 15:32 38.86850 22.76118 36388 ft 483 kts 143°
2026-02-17 15:33 38.81708 22.81690 36370 ft 482 kts 144°
2026-02-17 15:33 38.76608 22.87205 36390 ft 482 kts 144°
2026-02-17 15:34 38.71445 22.92778 36397 ft 482 kts 144°
2026-02-17 15:35 38.63774 23.01037 36391 ft 482 kts 144°
2026-02-17 15:35 38.58596 23.06598 36394 ft 482 kts 144°
2026-02-17 15:36 38.53456 23.12108 36377 ft 483 kts 144°
2026-02-17 15:36 38.48307 23.17618 36400 ft 482 kts 144°
2026-02-17 15:37 38.43192 23.23080 36407 ft 482 kts 144°
2026-02-17 15:37 38.38031 23.28580 36411 ft 482 kts 144°
2026-02-17 15:38 38.32885 23.34056 36411 ft 482 kts 144°
2026-02-17 15:38 38.27729 23.39533 36412 ft 482 kts 144°
2026-02-17 15:39 38.20021 23.47700 36412 ft 480 kts 145°
2026-02-17 15:39 38.14888 23.53119 36415 ft 480 kts 145°
2026-02-17 15:40 38.09741 23.58544 36410 ft 480 kts 145°
2026-02-17 15:40 38.04605 23.63950 36414 ft 480 kts 145°
2026-02-17 15:41 37.99455 23.69359 36387 ft 480 kts 145°
2026-02-17 15:41 37.94288 23.74778 36441 ft 482 kts 145°
2026-02-17 15:42 37.89133 23.80170 36436 ft 479 kts 146°
2026-02-17 15:43 37.81406 23.88206 36440 ft 479 kts 146°
2026-02-17 15:43 37.76252 23.93555 36435 ft 479 kts 146°
2026-02-17 15:44 37.71088 23.98904 36430 ft 480 kts 146°
2026-02-17 15:44 37.65913 24.04254 36434 ft 481 kts 146°
2026-02-17 15:45 37.60737 24.09596 36421 ft 479 kts 147°
2026-02-17 15:45 37.55611 24.14877 36436 ft 479 kts 147°
2026-02-17 15:46 37.50422 24.20212 36439 ft 479 kts 147°
2026-02-17 15:46 37.45291 24.25479 36436 ft 479 kts 147°
2026-02-17 15:47 37.37503 24.33453 36446 ft 483 kts 147°
2026-02-17 15:47 37.32293 24.38776 36421 ft 482 kts 147°
2026-02-17 15:48 37.27091 24.44081 36455 ft 482 kts 147°
2026-02-17 15:48 37.21880 24.49385 36450 ft 482 kts 147°
2026-02-17 15:49 37.16667 24.54680 36470 ft 482 kts 147°
2026-02-17 15:49 37.11443 24.59979 36466 ft 483 kts 147°
2026-02-17 15:50 37.06218 24.65268 36487 ft 483 kts 148°
2026-02-17 15:51 36.98366 24.73199 36497 ft 485 kts 148°
2026-02-17 15:51 36.93107 24.78499 36510 ft 483 kts 148°
2026-02-17 15:52 36.87547 24.83017 36475 ft 476 kts 155°
2026-02-17 15:52 36.81916 24.87384 36521 ft 477 kts 155°
2026-02-17 15:53 36.76306 24.91716 36522 ft 477 kts 156°
2026-02-17 15:53 36.70647 24.96076 36525 ft 477 kts 156°
2026-02-17 15:54 36.64996 25.00413 36539 ft 477 kts 156°
2026-02-17 15:54 36.56525 25.06902 36541 ft 476 kts 156°
2026-02-17 15:55 36.50873 25.11221 36554 ft 476 kts 156°
2026-02-17 15:55 36.45236 25.15522 36562 ft 476 kts 156°
2026-02-17 15:56 36.39586 25.19825 36559 ft 476 kts 156°
2026-02-17 15:56 36.33932 25.24125 36527 ft 476 kts 157°
2026-02-17 15:57 36.28278 25.28416 36583 ft 477 kts 157°
2026-02-17 15:57 36.22621 25.32702 36566 ft 476 kts 157°
2026-02-17 15:58 36.16980 25.36970 36572 ft 474 kts 157°
2026-02-17 15:59 36.08583 25.43311 36589 ft 473 kts 157°
2026-02-17 15:59 36.02944 25.47560 36584 ft 476 kts 158°
2026-02-17 16:00 35.97223 25.51865 36600 ft 478 kts 158°
2026-02-17 16:00 35.91551 25.56125 36603 ft 478 kts 158°
2026-02-17 16:01 35.85907 25.60358 36603 ft 478 kts 158°
2026-02-17 16:01 35.80226 25.64610 36573 ft 478 kts 158°
2026-02-17 16:02 35.74530 25.68866 36598 ft 480 kts 158°
2026-02-17 16:02 35.65968 25.75251 36602 ft 479 kts 158°
2026-02-17 16:03 35.60257 25.79501 36613 ft 480 kts 158°
2026-02-17 16:03 35.54544 25.83746 36617 ft 479 kts 158°
2026-02-17 16:04 35.48830 25.87983 36617 ft 479 kts 158°
2026-02-17 16:04 35.43163 25.92179 36628 ft 479 kts 158°
2026-02-17 16:05 35.37455 25.96398 36618 ft 479 kts 159°
2026-02-17 16:05 35.32676 25.99925 36630 ft 477 kts 159°
2026-02-17 16:06 35.26717 26.04316 36641 ft 477 kts 159°
2026-02-17 16:07 35.18164 26.10605 36650 ft 479 kts 159°
2026-02-17 16:07 35.12489 26.14771 36651 ft 478 kts 159°
2026-02-17 16:08 35.06807 26.19012 36659 ft 486 kts 153°
2026-02-17 16:08 34.98965 26.27120 36659 ft 492 kts 149°
2026-02-17 16:09 34.93763 26.32525 36646 ft 492 kts 149°
2026-02-17 16:09 34.88519 26.37969 36709 ft 495 kts 149°
2026-02-17 16:10 34.83286 26.43392 36718 ft 494 kts 149°
2026-02-17 16:11 34.75449 26.51496 36739 ft 494 kts 149°
2026-02-17 16:11 34.70201 26.56911 36726 ft 494 kts 149°
2026-02-17 16:12 34.64955 26.62315 36681 ft 495 kts 149°
2026-02-17 16:12 34.59696 26.67723 36767 ft 496 kts 149°
2026-02-17 16:13 34.54469 26.73088 36759 ft 495 kts 149°
2026-02-17 16:13 34.49210 26.78478 36774 ft 495 kts 149°
2026-02-17 16:14 34.43947 26.83862 36774 ft 495 kts 149°
2026-02-17 16:14 34.36081 26.91893 36785 ft 490 kts 149°
2026-02-17 16:15 34.30887 26.97184 36795 ft 487 kts 149°
2026-02-17 16:15 34.25698 27.02460 36795 ft 486 kts 149°
2026-02-17 16:16 34.20510 27.07728 36802 ft 487 kts 149°
2026-02-17 16:16 34.15326 27.12983 36812 ft 486 kts 149°
2026-02-17 16:17 34.10146 27.18224 36787 ft 486 kts 150°
2026-02-17 16:17 34.04995 27.23428 36814 ft 484 kts 150°
2026-02-17 16:18 33.99748 27.28722 36832 ft 486 kts 150°
2026-02-17 16:18 33.94513 27.33542 36798 ft 464 kts 165°
2026-02-17 16:19 33.91605 27.35106 36848 ft 460 kts 166°
2026-02-17 17:27 27.17425 33.65624 37009 ft 392 kts 177°
2026-02-17 17:27 27.12165 33.67235 36996 ft 391 kts 178°
2026-02-17 17:29 27.01345 33.76016 36948 ft 458 kts 115°
2026-02-17 17:29 27.00914 33.78372 36977 ft 473 kts 103°
2026-02-17 17:29 27.01212 33.83403 36983 ft 499 kts 78°
2026-02-17 17:30 27.04157 33.88967 36949 ft 498 kts 37°
2026-02-17 17:31 27.17036 33.87798 37013 ft 364 kts 300°
2026-02-17 17:32 27.21925 33.81284 36992 ft 368 kts 294°
2026-02-17 17:32 27.25210 33.76756 36989 ft 385 kts 301°
2026-02-17 17:32 27.27416 33.74840 37019 ft 418 kts 317°
2026-02-17 17:33 27.30212 33.73558 37003 ft 449 kts 333°
2026-02-17 17:33 27.33363 33.73060 36979 ft 479 kts 349°
2026-02-17 17:33 27.36757 33.73513 36979 ft 505 kts
2026-02-17 17:33 27.40116 33.74925 36994 ft 522 kts 17°
2026-02-17 17:34 27.43480 33.76367 36958 ft 513 kts
2026-02-17 17:34 27.46953 33.76845 36978 ft 492 kts 346°
2026-02-17 17:35 27.55350 33.72695 37002 ft 412 kts 297°
2026-02-17 17:35 27.58900 33.67643 37006 ft 417 kts 296°
2026-02-17 17:35 27.61021 33.65273 36982 ft 444 kts 311°
2026-02-17 17:36 27.63768 33.63579 37005 ft 472 kts 327°
2026-02-17 17:36 27.67057 33.62686 37004 ft 501 kts 343°
2026-02-17 17:36 27.70632 33.62754 37000 ft 526 kts 359°
2026-02-17 17:36 27.74236 33.63839 37001 ft 545 kts 15°
2026-02-17 17:37 27.77747 33.65522 36998 ft 546 kts 11°
2026-02-17 17:37 27.81356 33.66475 36986 ft 522 kts 354°
2026-02-17 17:37 27.84856 33.66394 37007 ft 497 kts 338°
2026-02-17 17:37 27.88086 33.65347 37009 ft 468 kts 321°
2026-02-17 17:38 27.90757 33.63476 37008 ft 436 kts 304°
2026-02-17 17:38 27.92767 33.61055 37026 ft 420 kts 297°
2026-02-17 17:38 27.97857 33.57143 37000 ft 478 kts 329°
2026-02-17 17:39 28.01217 33.56388 37018 ft 507 kts 345°
2026-02-17 17:39 28.04819 33.56605 37002 ft 531 kts
2026-02-17 17:39 28.08412 33.57836 37040 ft 550 kts 18°
2026-02-17 17:39 28.11722 33.60006 37011 ft 563 kts 34°
2026-02-17 17:40 28.18171 33.70937 36969 ft 560 kts 82°
2026-02-17 17:40 28.18671 33.75244 37009 ft 546 kts 98°